Regional Weather Roundup
Issued by NWS

Home | Current Version | Previous Version | Graphics & Text | Print | Product List | Glossary On
Versions: 1 2 3 4 5 6 7 8 9 10 11 12 13 14 15 16 17 18 19 20 21 22 23 24 25 26 27 28 29 30 31 32 33 34 35 36 37 38 39 40 41 42 43 44 45 46 47 48 49 50
000
ASUS43 KLOT 200509
RWRIL

ILLINOIS REGIONAL WEATHER ROUNDUP
NATIONAL WEATHER SERVICE CHICAGO/ROMEOVILLE IL
1200 AM CDT FRI OCT 20 2017

NOTE: "FAIR" INDICATES FEW OR NO CLOUDS BELOW 12,000 FEET WITH NO
SIGNIFICANT WEATHER AND/OR OBSTRUCTIONS TO VISIBILITY.

* THESE STATIONS ARE NOT UNDER NWS QUALITY CONTROL. THEY ALSO MAY NOT
  REPORT WEATHER SUCH AS PRECIPITATION OR FOG.

ILZ001-002-007-009-015-016-024-200600-
NORTHWEST ILLINOIS

CITY           SKY/WX    TMP DP  RH WIND       PRES   REMARKS
MOLINE         FAIR      57  49  74 S6        30.09F
STERLING*      FAIR      50  44  80 E5          N/A
SAVANNA*       FAIR      50  45  81 CALM      30.11S
$$

ILZ003-004-008-010-011-017-018-200600-
NORTH CENTRAL ILLINOIS

CITY           SKY/WX    TMP DP  RH WIND       PRES   REMARKS
ROCKFORD       FAIR      54  37  52 S6        30.14S
FREEPORT*      FAIR      55  39  53 S7        30.13S
ROCHELLE*      FAIR      55  40  57 SE7       30.14S
DE KALB*       FAIR      53  36  52 SE8       30.15F
PERU*          FAIR      56  48  74 S6        30.14S
$$

ILZ005-006-012>014-019>023-200600-
NORTHEAST ILLINOIS

CITY           SKY/WX    TMP DP  RH WIND       PRES   REMARKS
CHICAGO-OHARE  FAIR      56  38  50 S8        30.15S
CHICAGO-MIDWAY FAIR      58  35  42 S7        30.15F
AURORA         FAIR      52  39  61 SE5       30.15S
LANSING*       FAIR      52  38  59 CALM      30.17F
JOLIET*        FAIR      57  38  49 SE3       30.16S
WAUKEGAN       FAIR      47  35  63 S5        30.14S
DUPAGE AIRPORT FAIR      52  38  58 S3        30.14F
KANKAKEE*      FAIR      53  47  78 SE5       30.17F
WHEELING       FAIR      49  41  74 CALM      30.16F
MORRIS*        FAIR      54  39  57 SE6       30.14F
ROMEOVILLE*    FAIR      53  38  55 S7        30.15F
NORTHERLY ISL    N/A     59  34  39 S5          N/A
$$

LMZ740>746-200600-
SOUTHERN LAKE MICHIGAN

STATION/POSITION SKY/WX   TEMP    WIND        PRES    VSBY  WAVE
                          AIR SEA DIR/SP/G                  HT/PER
                          (F)     (DEG/KT/KT) (MB)    (MI)  (FT/S)
SOUTHERN BUOY              61 61  150/ 10/ 14 1021.2          1/ 3
WILMETTE HARBOR            60 58  150/ 10/ 14   N/A           1/ 2
HARRISON CRIB              62     170/ 12/ 13   N/A
BURNHAM HARBOR             59     150/  5       N/A
CALUMET HARBOR             59     170/  6/ 10 1020.6F
BURNS HARBOR               61     150/ 10/ 15 1022.0S
MICHIGAN CITY              56     140/ 10/ 11   N/A
MICHIGAN CITY 6N           58 58  150/  6/ 10   N/A           1
ST. JOSEPH                 59 58  170/  6/  8 1022.0          1/ 4
$$

ILZ025>027-034>036-040-047-049-050-058-095>099-200600-
WEST-CENTRAL ILLINOIS

CITY           SKY/WX    TMP DP  RH WIND       PRES   REMARKS
GALESBURG*     FAIR      65  58  79 S6        30.13S
MACOMB*        FAIR      56  50  79 S7        30.14S
JACKSONVILLE*  FAIR      63  50  62 S9        30.14S
PITTSFIELD*    FAIR      59  52  76 S3        30.14F
$$

ILZ028>032-037-038-041>044-048-051>054-059>061-200600-
CENTRAL ILLINOIS

CITY           SKY/WX    TMP DP  RH WIND       PRES   REMARKS
PONTIAC        FAIR      50  50  98 SE6       30.16F
BLOOMINGTON    FAIR      55  49  80 S8        30.17F
DECATUR        FAIR      58  49  72 S6        30.17F
PEORIA         FAIR      58  50  75 S5        30.14S
LACON*         FAIR      58  51  77 S3        30.12F
LINCOLN*       FAIR      59  51  74 S8        30.16S
SPRINGFIELD    FAIR      62  52  69 S7        30.15F
TAYLORVILLE    FAIR      58  50  73 S8        30.17S
$$

ILZ033-039-045-046-055>057-062-063-200600-
EAST-CENTRAL ILLINOIS

CITY           SKY/WX    TMP DP  RH WIND       PRES   REMARKS
CHAMPAIGN      FAIR      55  48  77 S9        30.18S
DANVILLE*      FAIR      54  50  87 CALM      30.16S
RANTOUL*       FAIR      55  51  84 CALM      30.18S
MATTOON        FAIR      58  51  78 S6        30.18S
PARIS*         FAIR      53  49  86 S6        30.20S
$$

ILZ079-100>102-200600-
SOUTHWEST ILLINOIS

CITY           SKY/WX    TMP DP  RH WIND       PRES   REMARKS
ALTON          FAIR      55  51  87 CALM      30.17S
BELLEVILLE     CLEAR     53  50  88 CALM      30.20S
CAHOKIA*       FAIR      59  49  69 S6        30.16S
SPARTA*        FAIR      60  50  69 S6        30.19F
$$

ILZ064>066-069>071-074>076-080>082-084>086-088>090-092>094-200600-
SOUTH-CENTRAL ILLINOIS

CITY           SKY/WX    TMP DP  RH WIND       PRES   REMARKS
CARBONDALE     FAIR      50  50 100 CALM      30.19F
CAIRO*         FAIR      49  49 100 CALM      30.21S
EFFINGHAM*     FAIR      53  51  95 CALM      30.21S
MARION         FAIR      56  53  90 S3        30.20F
MT. VERNON     FAIR      47  47 100 CALM      30.20S
CENTRALIA*     FAIR      59  53  78 S7        30.19S
SALEM*         FAIR      61  51  70 S3        30.19S
METROPOLIS*    FAIR      50  50  98 CALM      30.22S
$$

ILZ067-068-072-073-078-083-087-091-200600-
SOUTHEAST ILLINOIS

CITY           SKY/WX    TMP DP  RH WIND       PRES   REMARKS
LAWRENCEVILLE  FAIR      55  52  89 CALM      30.21S
FLORA*         FAIR      54  50  86 CALM      30.20S
FAIRFIELD*     FAIR      55  52  90 CALM      30.19F
HARRISBURG*    FAIR      50  50  99 CALM      30.22S
ROBINSON*      FAIR      50  49  98 CALM      30.22S
CARMI*         FAIR      50  49  99 CALM      30.21S
$$

ABBREVIATIONS USED IN REMARKS
   TC - TEMPERATURE IN CELSIUS
  WCI - WIND CHILL INDEX
   HX - HEAT INDEX
  VSB - VISIBILITY
$$





USA.gov is the U.S. government's official web portal to all federal, state and local government web resources and services.